Location: Newark
(33.4453°N, 112.0669°W)
Time: 15:56:39
(UTC+00:00)

LightSail 2 - Pass Details

Date: 28 January 2020
Orbit: 701 x 721 km, 24.0° (Epoch: 16 February)

Event Time Altitude Azimuth Distance (km) Brightness Sun altitude
Rises 01:17:22 0° 256° (WSW) 3,071 11.2 -5.3°
Reaches altitude 10° 01:20:13 10° 241° (WSW) 2,155 9.4 -5.9°
Maximum altitude 01:24:08 22° 191° (S) 1,490 7.2 -6.6°
Drops below altitude 10° 01:28:04 10° 140° (SE) 2,163 7.4 -7.4°
Sets 01:30:57 0° 126° (SE) 3,085 8.1 -8.0°
